Flag for U.S.A. Weather past 2 weeks in Compton, California, U.S.A.

Now
58 °F

Low clouds.


Feels Like: 58 °F
Forecast: 57 / 75 °F
Wind: No wind

Location: Hawthorne Municipal Airport


UV Index: 5 (Moderate)

Visibility: 6 mi


Pressure: 30.04 "Hg

Humidity: 87%

Dew point: 54 °F

Location of ComptonLocation

Historic Weather in Compton

°F

Compton temperature yesterday

Maximum temperature yesterday: 69 °F (at 10:53 AM)
Minimum temperature yesterday: 59 °F (at 2:53 AM)
Average temperature yesterday: 64 °F

Past Weeks' High & Low Weather Summary

 TemperatureHumidityPressure
High85 °F (Apr 8, 1:53 PM)97% (Apr 10, 3:53 AM)30.10 "Hg (Apr 10, 3:53 AM)
Low52 °F (Apr 10, 3:53 AM)16% (Apr 8, 3:53 PM)29.80 "Hg (Apr 16, 5:53 PM)
Average63 °F63%29.97 "Hg
* Reported Apr 6 5:53 AM — Apr 21 5:53 AM, Compton, Weather by CustomWeather, © 2014

Note: Actual official high and low records may vary slightly from our data, if they occured in-between our weather recording intervals... More about our weather records

Advertising

Historic Weather Conditions — Data for Previous 24 hours

 ConditionsComfort  
Time TempWeatherWind HumidityBarometerVisibility
5:53 AM
Apr 21
58 °FPassing clouds.No wind87%30.02 "Hg8 mi
4:53 AM59 °FClear.No wind78%30.03 "Hg10 mi
3:53 AM58 °FClear.No wind81%30.02 "Hg10 mi
2:53 AM59 °FClear.No wind81%30.03 "Hg10 mi
1:53 AM60 °FClear.No wind80%30.04 "Hg10 mi
12:53 AM60 °FClear.No wind80%30.05 "Hg10 mi
11:53 PM
Apr 20
60 °FClear.No wind80%30.05 "Hg10 mi
10:53 PM61 °FClear.No wind81%30.04 "Hg10 mi
9:53 PM61 °FClear.5 mph81%30.04 "Hg10 mi
8:53 PM63 °FClear.5 mph75%30.03 "Hg10 mi
7:53 PM63 °FSunny.5 mph75%30.02 "Hg10 mi
6:53 PM65 °FSunny.6 mph68%30.01 "Hg10 mi
5:53 PM68 °FSunny.7 mph61%30.01 "Hg10 mi
4:53 PM68 °FSunny.7 mph59%30.01 "Hg10 mi
3:53 PM69 °FSunny.10 mph59%30.02 "Hg10 mi
2:53 PM69 °FSunny.12 mph57%30.03 "Hg10 mi
1:53 PM69 °FSunny.9 mph59%30.04 "Hg10 mi
12:53 PM69 °FSunny.12 mph59%30.04 "Hg10 mi
11:53 AM69 °FSunny.12 mph59%30.06 "Hg10 mi
10:53 AM69 °FSunny.3 mph55%30.06 "Hg10 mi
9:53 AM65 °FSunny.No wind66%30.06 "Hg10 mi
8:53 AM63 °FScattered clouds.No wind73%30.06 "Hg9 mi
8:01 AM61 °FPartly sunny.5 mph77%30.06 "Hg9 mi
Weather by CustomWeather, © 2014

See weather overview